UPS626 RPLC-VHHH

Flight info

Callsign UPS626
Flight time 1h 30m
Altitude 30000
Route MALI2C MALIB W4 SANRO A461 NOMAN OSUMO BETTY BETY3A
Aircraft B742/H-SDFHIRWXY/E

Departure

Time 2026-05-04 04:13
Airport Clark International Airport / Clark Air Base (RPLC)

Arrival

Time 2026-05-04 05:43
Airport Hong Kong International Airport (VHHH)
Time Latitude Longitude Altitude Speed Heading
2026-05-04 03:42 15.18086 120.54779 525 ft 0 kts 290°
2026-05-04 04:00 15.18082 120.54790 524 ft 2 kts 290°
2026-05-04 04:01 15.18077 120.54804 524 ft 2 kts 290°
2026-05-04 04:01 15.18072 120.54819 523 ft 1 kts 290°
2026-05-04 04:01 15.18069 120.54828 523 ft 2 kts 286°
2026-05-04 04:01 15.18067 120.54843 522 ft 2 kts 268°
2026-05-04 04:02 15.18069 120.54858 522 ft 2 kts 253°
2026-05-04 04:02 15.18075 120.54873 521 ft 2 kts 238°
2026-05-04 04:02 15.18084 120.54885 520 ft 2 kts 224°
2026-05-04 04:02 15.18096 120.54894 519 ft 2 kts 209°
2026-05-04 04:03 15.18104 120.54898 519 ft 0 kts 200°
2026-05-04 04:03 15.18106 120.54899 519 ft 0 kts 200°
2026-05-04 04:09 15.18097 120.54896 519 ft 3 kts 200°
2026-05-04 04:09 15.18062 120.54882 521 ft 7 kts 202°
2026-05-04 04:09 15.18001 120.54855 525 ft 9 kts 203°
2026-05-04 04:09 15.17942 120.54837 529 ft 9 kts 181°
2026-05-04 04:10 15.17878 120.54896 528 ft 18 kts 113°
2026-05-04 04:10 15.17818 120.55053 519 ft 27 kts 112°
2026-05-04 04:10 15.17734 120.55243 508 ft 23 kts 118°
2026-05-04 04:10 15.17680 120.55345 501 ft 18 kts 118°
2026-05-04 04:11 15.17607 120.55480 495 ft 23 kts 120°
2026-05-04 04:11 15.17537 120.55608 485 ft 13 kts 119°
2026-05-04 04:11 15.17490 120.55697 483 ft 14 kts 116°
2026-05-04 04:11 15.17485 120.55795 482 ft 13 kts 49°
2026-05-04 04:12 15.17512 120.55813 482 ft 0 kts 20°
2026-05-04 04:12 15.17518 120.55815 482 ft 7 kts 20°
2026-05-04 04:12 15.17823 120.55936 473 ft 87 kts 21°
2026-05-04 04:12 15.18634 120.56256 447 ft 157 kts 21°
2026-05-04 04:13 15.19818 120.56719 596 ft 195 kts 20°
2026-05-04 04:13 15.21167 120.56968 1153 ft 204 kts 356°
2026-05-04 04:13 15.22544 120.56638 1852 ft 201 kts 338°
2026-05-04 04:13 15.23833 120.56073 2289 ft 204 kts 337°
2026-05-04 04:14 15.25162 120.55472 2703 ft 206 kts 339°
2026-05-04 04:14 15.26507 120.54921 3094 ft 211 kts 344°
2026-05-04 04:14 15.27938 120.54495 3506 ft 216 kts 349°
2026-05-04 04:14 15.29461 120.54147 3752 ft 230 kts 350°
2026-05-04 04:15 15.31076 120.53864 4078 ft 241 kts 355°
2026-05-04 04:15 15.32821 120.53656 4305 ft 252 kts 356°
2026-05-04 04:15 15.34632 120.53478 4546 ft 271 kts 357°
2026-05-04 04:15 15.36518 120.53305 5169 ft 275 kts 357°
2026-05-04 04:16 15.38446 120.53133 5882 ft 278 kts 358°
2026-05-04 04:16 15.40368 120.52962 6600 ft 280 kts 358°
2026-05-04 04:16 15.42325 120.52789 7334 ft 282 kts 358°
2026-05-04 04:16 15.44290 120.52614 8052 ft 283 kts 358°
2026-05-04 04:17 15.46258 120.52426 8771 ft 285 kts 356°
2026-05-04 04:17 15.48224 120.52203 9447 ft 286 kts 356°
2026-05-04 04:17 15.50221 120.51955 10102 ft 290 kts 355°
2026-05-04 04:17 15.52313 120.51688 10364 ft 309 kts 355°
2026-05-04 04:18 15.54500 120.51404 10612 ft 328 kts 355°
2026-05-04 04:18 15.56851 120.51096 10864 ft 346 kts 355°
2026-05-04 04:18 15.59311 120.50773 11120 ft 364 kts 354°
2026-05-04 04:18 15.61925 120.50428 11369 ft 382 kts 354°
2026-05-04 04:19 15.64581 120.50075 11886 ft 389 kts 354°
2026-05-04 04:19 15.67274 120.49716 12623 ft 390 kts 354°
2026-05-04 04:19 15.69984 120.49326 13217 ft 394 kts 353°
2026-05-04 04:19 15.72708 120.48893 13807 ft 397 kts 352°
2026-05-04 04:20 15.75471 120.48476 14411 ft 400 kts 353°
2026-05-04 04:20 15.78278 120.48078 15023 ft 404 kts 353°
2026-05-04 04:20 15.81090 120.47696 15596 ft 407 kts 353°
2026-05-04 04:20 15.83905 120.47321 16112 ft 411 kts 353°
2026-05-04 04:21 15.86743 120.46946 16652 ft 414 kts 353°
2026-05-04 04:21 15.89650 120.46561 17203 ft 417 kts 353°
2026-05-04 04:21 15.92567 120.46176 17692 ft 421 kts 353°
2026-05-04 04:21 15.95478 120.45791 18158 ft 426 kts 353°
2026-05-04 04:22 15.98451 120.45397 18640 ft 430 kts 353°
2026-05-04 04:22 16.01429 120.45003 19139 ft 432 kts 353°
2026-05-04 04:22 16.04454 120.44602 19608 ft 436 kts 353°
2026-05-04 04:22 16.07470 120.44202 20089 ft 439 kts 353°
2026-05-04 04:23 16.10521 120.43798 20559 ft 442 kts 353°
2026-05-04 04:23 16.13597 120.43391 20997 ft 445 kts 353°
2026-05-04 04:23 16.16717 120.42977 21434 ft 448 kts 353°
2026-05-04 04:23 16.19817 120.42566 21848 ft 451 kts 353°
2026-05-04 04:24 16.22933 120.42152 22270 ft 454 kts 353°
2026-05-04 04:24 16.26107 120.41732 22722 ft 457 kts 353°
2026-05-04 04:24 16.29293 120.41309 23136 ft 460 kts 352°
2026-05-04 04:24 16.32472 120.40887 23546 ft 462 kts 352°
2026-05-04 04:25 16.35699 120.40459 23945 ft 465 kts 352°
2026-05-04 04:25 16.38910 120.40031 24384 ft 466 kts 352°
2026-05-04 04:25 16.42163 120.39599 24791 ft 468 kts 352°
2026-05-04 04:25 16.45404 120.39168 25163 ft 471 kts 352°
2026-05-04 04:26 16.48692 120.38730 25541 ft 473 kts 352°
2026-05-04 04:26 16.51963 120.38294 25897 ft 475 kts 352°
2026-05-04 04:26 16.55278 120.37853 26264 ft 477 kts 352°
2026-05-04 04:26 16.58594 120.37412 26604 ft 479 kts 351°
2026-05-04 04:27 16.61935 120.36967 26937 ft 481 kts 351°
2026-05-04 04:27 16.65264 120.36523 27266 ft 483 kts 351°
2026-05-04 04:27 16.68593 120.35880 27638 ft 481 kts 342°
2026-05-04 04:27 16.71658 120.34596 28082 ft 476 kts 330°
2026-05-04 04:28 16.74479 120.32739 28613 ft 470 kts 321°
2026-05-04 04:28 16.76992 120.30603 29082 ft 468 kts 316°
2026-05-04 04:28 16.79385 120.28259 29472 ft 467 kts 313°
2026-05-04 04:28 16.81672 120.25853 29789 ft 469 kts 312°
2026-05-04 04:29 16.86244 120.20855 29889 ft 479 kts 311°
2026-05-04 04:29 16.90818 120.15810 29901 ft 474 kts 311°
2026-05-04 04:30 16.95362 120.10801 29901 ft 473 kts 311°
2026-05-04 04:30 16.99877 120.05806 29894 ft 472 kts 311°
2026-05-04 04:31 17.04364 120.00802 29890 ft 471 kts 311°
2026-05-04 04:31 17.08851 119.95778 29885 ft 473 kts 311°
2026-05-04 04:32 17.13376 119.90706 29885 ft 472 kts 311°
2026-05-04 04:32 17.17862 119.85686 29887 ft 471 kts 311°
2026-05-04 04:33 17.22366 119.80705 29891 ft 471 kts 311°
2026-05-04 04:33 17.26901 119.75734 29897 ft 471 kts 312°
2026-05-04 04:34 17.31430 119.70782 29893 ft 470 kts 312°
2026-05-04 04:34 17.35984 119.65802 29903 ft 470 kts 312°
2026-05-04 04:35 17.40513 119.60848 29897 ft 470 kts 312°
2026-05-04 04:35 17.45044 119.55888 29902 ft 470 kts 311°
2026-05-04 04:36 17.49541 119.50959 29910 ft 470 kts 311°
2026-05-04 04:36 17.54082 119.45976 29913 ft 471 kts 311°
2026-05-04 04:37 17.63137 119.36019 29913 ft 470 kts 311°
2026-05-04 04:38 17.67640 119.31056 29912 ft 470 kts 311°
2026-05-04 04:38 17.72154 119.26074 29912 ft 469 kts 311°
2026-05-04 04:39 17.76642 119.21111 29914 ft 469 kts 311°
2026-05-04 04:39 17.81134 119.16136 30077 ft 467 kts 311°
2026-05-04 04:40 17.83375 119.13651 30335 ft 465 kts 311°
2026-05-04 04:40 17.85608 119.11173 30599 ft 466 kts 311°
2026-05-04 04:40 17.87817 119.08718 30860 ft 466 kts 311°
2026-05-04 04:40 17.90042 119.06245 31125 ft 466 kts 311°
2026-05-04 04:41 17.92276 119.03758 31389 ft 465 kts 311°
2026-05-04 04:41 17.94523 119.01257 31657 ft 465 kts 311°
2026-05-04 04:41 17.96743 118.98784 31864 ft 466 kts 311°
2026-05-04 04:41 17.98970 118.96300 31913 ft 469 kts 311°
2026-05-04 04:42 18.03503 118.91239 31927 ft 467 kts 311°
2026-05-04 04:42 18.07946 118.86273 31923 ft 465 kts 311°
2026-05-04 04:43 18.12387 118.81302 31927 ft 463 kts 311°
2026-05-04 04:43 18.16818 118.76334 31921 ft 464 kts 311°
2026-05-04 04:44 18.21262 118.71349 31919 ft 463 kts 311°
2026-05-04 04:44 18.25679 118.66386 31920 ft 463 kts 311°
2026-05-04 04:45 18.30092 118.61425 31931 ft 462 kts 311°
2026-05-04 04:47 18.45507 118.44051 31933 ft 461 kts 310°
2026-05-04 04:47 18.49902 118.39088 31936 ft 461 kts 310°
2026-05-04 04:48 18.54315 118.34100 31942 ft 460 kts 310°
2026-05-04 04:49 18.65263 118.21702 31943 ft 460 kts 310°
2026-05-04 04:49 18.69614 118.16769 31943 ft 459 kts 310°
2026-05-04 04:50 18.73981 118.11814 31946 ft 459 kts 310°
2026-05-04 04:50 18.78365 118.06834 31946 ft 459 kts 310°
2026-05-04 04:51 18.82715 118.01890 31946 ft 458 kts 310°
2026-05-04 04:51 18.87014 117.96913 31946 ft 456 kts 308°
2026-05-04 04:52 18.91211 117.91874 31945 ft 455 kts 309°
2026-05-04 04:52 18.95520 117.86848 31946 ft 457 kts 310°
2026-05-04 04:53 18.99841 117.81892 31946 ft 457 kts 310°
2026-05-04 04:53 19.04183 117.76932 31949 ft 456 kts 310°
2026-05-04 04:54 19.08521 117.71978 31951 ft 457 kts 310°
2026-05-04 04:54 19.12852 117.67027 31958 ft 457 kts 310°
2026-05-04 04:55 19.17184 117.62073 31958 ft 457 kts 310°
2026-05-04 04:55 19.21499 117.57132 31959 ft 456 kts 310°
2026-05-04 04:56 19.25811 117.52191 31960 ft 456 kts 310°
2026-05-04 04:56 19.30145 117.47221 31961 ft 456 kts 310°
2026-05-04 04:57 19.34477 117.42248 31962 ft 457 kts 309°
2026-05-04 04:57 19.38810 117.37270 31966 ft 457 kts 310°
2026-05-04 04:58 19.43127 117.32307 31968 ft 455 kts 309°
2026-05-04 04:58 19.47448 117.27335 31971 ft 456 kts 309°
2026-05-04 04:59 19.51754 117.22375 31970 ft 456 kts 309°
2026-05-04 04:59 19.56081 117.17388 31973 ft 455 kts 309°
2026-05-04 05:00 19.60395 117.12411 31974 ft 456 kts 309°
2026-05-04 05:01 19.66853 117.04954 31979 ft 454 kts 309°
2026-05-04 05:01 19.71166 116.99966 31980 ft 457 kts 309°
2026-05-04 05:02 19.75500 116.94952 31979 ft 456 kts 309°
2026-05-04 05:02 19.79821 116.89947 31974 ft 455 kts 309°
2026-05-04 05:03 19.84106 116.84980 31969 ft 455 kts 309°
2026-05-04 05:04 19.92703 116.75004 31970 ft 457 kts 309°
2026-05-04 05:04 19.96998 116.70009 31969 ft 456 kts 308°
2026-05-04 05:06 20.08229 116.49844 31977 ft 449 kts 295°
2026-05-04 05:06 20.09669 116.46921 31978 ft 449 kts 295°
2026-05-04 05:07 20.12587 116.40993 31981 ft 449 kts 295°
2026-05-04 05:07 20.15513 116.35046 31983 ft 451 kts 295°
2026-05-04 05:09 20.28618 116.08344 31980 ft 449 kts 294°
2026-05-04 05:10 20.31522 116.02408 31979 ft 450 kts 294°
2026-05-04 05:10 20.34422 115.96476 31984 ft 448 kts 294°
2026-05-04 05:11 20.37321 115.90539 31982 ft 450 kts 294°
2026-05-04 05:11 20.40212 115.84612 31984 ft 449 kts 294°
2026-05-04 05:12 20.43091 115.78704 31991 ft 449 kts 294°
2026-05-04 05:12 20.45983 115.72762 31993 ft 449 kts 294°
2026-05-04 05:13 20.48873 115.66818 31993 ft 449 kts 294°
2026-05-04 05:13 20.51758 115.60879 31993 ft 448 kts 294°
2026-05-04 05:14 20.54842 115.55048 31994 ft 452 kts 302°
2026-05-04 05:14 20.58943 115.49889 32017 ft 459 kts 309°
2026-05-04 05:15 20.63450 115.45013 32050 ft 457 kts 311°
2026-05-04 05:15 20.68017 115.40220 32069 ft 457 kts 311°
2026-05-04 05:16 20.72581 115.35441 32087 ft 456 kts 311°
2026-05-04 05:16 20.77156 115.30640 31877 ft 460 kts 311°
2026-05-04 05:17 20.79477 115.28201 31621 ft 462 kts 311°
2026-05-04 05:17 20.81781 115.25781 31365 ft 460 kts 311°
2026-05-04 05:17 20.84064 115.23381 31113 ft 459 kts 311°
2026-05-04 05:17 20.86335 115.20994 30800 ft 459 kts 311°
2026-05-04 05:18 20.88634 115.18573 30193 ft 461 kts 311°
2026-05-04 05:18 20.90906 115.16183 29596 ft 458 kts 311°
2026-05-04 05:18 20.93177 115.13792 28990 ft 453 kts 310°
2026-05-04 05:18 20.95392 115.11459 28407 ft 448 kts 311°
2026-05-04 05:19 20.97607 115.09125 27842 ft 444 kts 311°
2026-05-04 05:19 20.99808 115.06804 27273 ft 440 kts 311°
2026-05-04 05:19 21.01986 115.04504 26709 ft 437 kts 311°
2026-05-04 05:19 21.04125 115.02247 26147 ft 433 kts 311°
2026-05-04 05:20 21.06270 114.99980 25578 ft 431 kts 311°
2026-05-04 05:20 21.08401 114.97729 25012 ft 428 kts 311°
2026-05-04 05:20 21.10503 114.95506 24449 ft 425 kts 311°
2026-05-04 05:20 21.12626 114.93260 23876 ft 422 kts 311°
2026-05-04 05:21 21.14716 114.91047 23316 ft 420 kts 311°
2026-05-04 05:21 21.16770 114.88872 22766 ft 417 kts 311°
2026-05-04 05:21 21.18838 114.86681 22211 ft 414 kts 311°
2026-05-04 05:21 21.20872 114.84526 21669 ft 412 kts 311°
2026-05-04 05:22 21.22893 114.82383 21166 ft 408 kts 311°
2026-05-04 05:22 21.24918 114.80235 20667 ft 405 kts 311°
2026-05-04 05:22 21.26924 114.78105 20168 ft 402 kts 311°
2026-05-04 05:22 21.28889 114.76024 19672 ft 399 kts 311°
2026-05-04 05:23 21.30860 114.73949 19173 ft 396 kts 311°
2026-05-04 05:23 21.32844 114.71870 18679 ft 393 kts 311°
2026-05-04 05:23 21.34785 114.69843 18187 ft 390 kts 311°
2026-05-04 05:23 21.36720 114.67826 17686 ft 387 kts 311°
2026-05-04 05:24 21.38659 114.65803 17188 ft 385 kts 311°
2026-05-04 05:24 21.40565 114.63816 16707 ft 382 kts 311°
2026-05-04 05:24 21.42478 114.61821 16211 ft 380 kts 311°
2026-05-04 05:24 21.44364 114.59853 15722 ft 378 kts 311°
2026-05-04 05:25 21.46267 114.57887 15224 ft 376 kts 314°
2026-05-04 05:25 21.48382 114.56228 14728 ft 378 kts 326°
2026-05-04 05:25 21.50729 114.54973 14238 ft 379 kts 333°
2026-05-04 05:25 21.53210 114.53968 13862 ft 375 kts 337°
2026-05-04 05:26 21.55669 114.53105 13510 ft 370 kts 339°
2026-05-04 05:26 21.58112 114.52286 13149 ft 363 kts 337°
2026-05-04 05:26 21.60411 114.51183 12762 ft 353 kts 325°
2026-05-04 05:26 21.62386 114.49680 12380 ft 344 kts 316°
2026-05-04 05:27 21.64109 114.47913 11995 ft 337 kts 310°
2026-05-04 05:28 21.74098 114.36334 10356 ft 273 kts 309°
2026-05-04 05:29 21.75407 114.34817 10333 ft 275 kts 309°
2026-05-04 05:29 21.76699 114.33321 10310 ft 273 kts 308°
2026-05-04 05:29 21.77984 114.31829 10290 ft 273 kts 309°
2026-05-04 05:29 21.79284 114.30320 10269 ft 272 kts 308°
2026-05-04 05:31 21.88260 114.19807 9804 ft 270 kts 304°
2026-05-04 05:31 21.89336 114.18189 9561 ft 264 kts 299°
2026-05-04 05:32 21.90304 114.16500 9340 ft 263 kts 297°
2026-05-04 05:32 21.91219 114.14798 9113 ft 263 kts 296°
2026-05-04 05:32 21.92118 114.13084 8891 ft 263 kts 296°
2026-05-04 05:33 21.93893 114.09655 8436 ft 259 kts 296°
2026-05-04 05:33 21.94766 114.07960 8208 ft 259 kts 296°
2026-05-04 05:33 21.95651 114.06243 7971 ft 260 kts 296°
2026-05-04 05:33 21.96523 114.04549 7737 ft 258 kts 296°
2026-05-04 05:34 21.97395 114.02856 7508 ft 258 kts 296°
2026-05-04 05:34 21.98262 114.01172 7281 ft 258 kts 297°
2026-05-04 05:34 21.99141 113.99465 7043 ft 258 kts 297°
2026-05-04 05:34 22.00008 113.97781 6808 ft 255 kts 297°
2026-05-04 05:35 22.00864 113.96116 6581 ft 257 kts 297°
2026-05-04 05:35 22.01730 113.94430 6342 ft 254 kts 297°
2026-05-04 05:35 22.02578 113.92781 6110 ft 253 kts 297°
2026-05-04 05:35 22.03439 113.91104 5869 ft 253 kts 297°
2026-05-04 05:36 22.04294 113.89440 5626 ft 255 kts 297°
2026-05-04 05:36 22.05151 113.87771 5367 ft 255 kts 297°
2026-05-04 05:36 22.06016 113.86087 5116 ft 255 kts 297°
2026-05-04 05:36 22.06872 113.84418 4877 ft 255 kts 298°
2026-05-04 05:37 22.07729 113.82747 4586 ft 256 kts 298°
2026-05-04 05:37 22.08600 113.81049 4296 ft 257 kts 298°
2026-05-04 05:37 22.09467 113.79365 4011 ft 257 kts 301°
2026-05-04 05:38 22.12015 113.76675 3458 ft 258 kts 329°
2026-05-04 05:38 22.13572 113.75727 3182 ft 257 kts 334°
2026-05-04 05:38 22.15190 113.74866 2899 ft 256 kts 338°
2026-05-04 05:38 22.16852 113.74185 2622 ft 254 kts 342°
2026-05-04 05:39 22.18506 113.73546 2342 ft 249 kts 343°
2026-05-04 05:39 22.21722 113.74134 2014 ft 243 kts 47°
2026-05-04 05:39 22.22553 113.75681 1856 ft 240 kts 75°
2026-05-04 05:40 22.23551 113.79125 1664 ft 240 kts 61°
2026-05-04 05:40 22.24478 113.80614 1592 ft 240 kts 51°
2026-05-04 05:40 22.25521 113.82001 1528 ft 227 kts 49°
2026-05-04 05:41 22.26604 113.83185 981 ft 220 kts 43°
2026-05-04 05:41 22.27700 113.84301 526 ft 209 kts 46°
2026-05-04 05:41 22.28611 113.85504 316 ft 205 kts 54°
2026-05-04 05:41 22.29256 113.86823 453 ft 196 kts 71°
2026-05-04 05:42 22.29448 113.88251 434 ft 186 kts 85°
2026-05-04 05:42 22.29592 113.89569 245 ft 168 kts 75°
2026-05-04 05:42 22.29922 113.90726 45 ft 156 kts 69°
2026-05-04 05:42 22.30252 113.91747 38 ft 123 kts 71°
2026-05-04 05:43 22.30456 113.92387 37 ft 53 kts 72°
2026-05-04 05:43 22.30503 113.92714 37 ft 28 kts 98°
2026-05-04 05:43 22.30427 113.92806 37 ft 14 kts 197°
2026-05-04 05:45 22.30076 113.92051 37 ft 16 kts 160°
2026-05-04 05:45 22.29969 113.92061 37 ft 15 kts 206°
2026-05-04 05:47 22.29860 113.92057 37 ft 0 kts 162°